Location: Unspecified
(0.0000°N, 0.0000°E)
Time: 22:55:26
(UTC+00:00)

Explorer 7 - All Passes

Search period start: 29 July 2014 00:00
Search period end: 08 August 2014 00:00
Orbit: 492 x 707 km, 50.3° (Epoch: 29 July)

Date Brightness Start Highest point End Pass type
(mag) Time Alt. Az. Time Alt. Az. Time Alt. Az.
29 Jul - 09:43:21 10° WSW 09:46:53 38° NW 09:50:30 10° NNE daylight
29 Jul - 20:07:41 10° N 20:11:33 22° NE 20:15:24 10° ESE visible
29 Jul - 21:47:57 10° WNW 21:52:25 32° SW 21:56:48 10° S visible
30 Jul - 08:13:41 10° S 08:16:45 23° SE 08:19:50 10° ENE daylight
30 Jul - 09:55:12 10° W 09:57:25 15° NW 09:59:41 10° NNW daylight
30 Jul - 20:17:14 10° NNW 20:22:05 48° NE 20:26:54 10° SE visible
30 Jul - 22:00:10 10° W 22:02:57 15° SW 22:05:42 10° SSW night (unlit)
31 Jul - 08:23:30 10° SSW 08:27:15 66° SE 08:31:01 10° NE daylight
31 Jul - 20:27:32 10° NW 20:32:34 77° SW 20:37:35 10° SSE visible
01 Aug - 08:34:09 10° SW 08:37:43 41° NW 08:41:19 10° NNE daylight
01 Aug - 18:58:29 10° N 19:02:12 21° NE 19:05:56 10° E visible
01 Aug - 20:38:31 10° WNW 20:43:04 34° SW 20:47:35 10° SSE visible
02 Aug - 07:04:36 10° S 07:07:34 22° SE 07:10:31 10° ENE daylight
02 Aug - 08:45:52 10° W 08:48:14 16° NW 08:50:36 10° NNW daylight
02 Aug - 19:07:56 10° NNW 19:12:43 44° NE 19:17:31 10° SE visible
02 Aug - 20:50:33 10° W 20:53:36 16° SW 20:56:38 10° SSW visible
03 Aug - 07:14:19 10° SSW 07:18:04 60° SE 07:21:46 10° NE daylight
03 Aug - 19:18:10 10° NW 19:23:11 82° SW 19:28:15 10° SE visible
04 Aug - 07:24:54 10° SW 07:28:31 44° NW 07:32:08 10° NNE daylight
04 Aug - 17:49:18 10° N 17:52:49 19° NE 17:56:24 10° E daylight
04 Aug - 19:29:05 10° WNW 19:33:41 36° SW 19:38:19 10° SSE visible
05 Aug - 05:55:27 10° S 05:58:21 20° SE 06:01:12 10° ENE daylight
05 Aug - 07:36:29 10° W 07:39:00 17° NW 07:41:31 10° N daylight
05 Aug - 17:58:39 10° NNW 18:03:19 41° NE 18:08:04 10° ESE daylight
05 Aug - 19:40:57 10° W 19:44:12 17° SW 19:47:28 10° SSW visible
06 Aug - 06:05:05 10° SSW 06:08:51 55° SE 06:12:32 10° NE daylight
06 Aug - 18:08:48 10° NW 18:13:46 87° SW 18:18:51 10° SE daylight
07 Aug - 06:15:35 10° SW 06:19:18 49° NW 06:22:56 10° NNE daylight
07 Aug - 16:40:08 10° N 16:43:25 18° NE 16:46:46 10° E daylight
07 Aug - 18:19:38 10° WNW 18:24:15 39° SW 18:28:58 10° SSE visible
